Location: Normandy Village
(37.8755°N, 122.2655°W)
Time: 12:13:42
(UTC+00:00)

Cosmos 1346 Rocket - Pass Details

Date: 22 September 2019
Orbit: 520 x 559 km, 81.2° (Epoch: 21 October)

Event Time Altitude Azimuth Distance (km) Brightness Sun altitude
Rises 12:52:09 0° 336° (NNW) 2,752 6.3 -13.5°
Reaches altitude 10° 12:54:40 10° 321° (NW) 1,851 5.2 -13.0°
Maximum altitude 12:57:53 23° 269° (W) 1,220 4.0 -12.4°
Drops below altitude 10° 13:01:04 10° 217° (SW) 1,831 5.1 -11.8°
Sets 13:03:33 0° 203° (SSW) 2,715 6.0 -11.3°
